Regional Weather Roundup
Issued by NWS

Home | Current Version | Previous Version | Graphics & Text | Print | Product List | Glossary On
Versions: 1 2 3 4 5 6 7 8 9 10 11 12 13 14 15 16 17 18 19 20 21 22 23 24 25 26 27 28 29 30 31 32 33 34 35 36 37 38 39 40 41 42 43 44 45 46 47 48 49 50
592
ASUS43 KLOT 290808
RWRIL

ILLINOIS REGIONAL WEATHER ROUNDUP
NATIONAL WEATHER SERVICE CHICAGO/ROMEOVILLE IL
300 AM CDT FRI APR 29 2016

NOTE: "FAIR" INDICATES FEW OR NO CLOUDS BELOW 12,000 FEET WITH NO
SIGNIFICANT WEATHER AND/OR OBSTRUCTIONS TO VISIBILITY.

* THESE STATIONS ARE NOT UNDER NWS QUALITY CONTROL. THEY ALSO MAY NOT
  REPORT WEATHER SUCH AS PRECIPITATION OR FOG.

ILZ001-002-007-009-015-016-024-290900-
NORTHWEST ILLINOIS

CITY           SKY/WX    TMP DP  RH WIND       PRES   REMARKS
MOLINE         CLOUDY    47  44  90 N8        30.03S FOG
STERLING*      CLOUDY    43  43 100 N7        30.05S
SAVANNA*       DRIZZLE   42  40  95 N3        30.06S
$$

ILZ003-004-008-010-011-017-018-290900-
NORTH CENTRAL ILLINOIS

CITY           SKY/WX    TMP DP  RH WIND       PRES   REMARKS
ROCKFORD       DRIZZLE   42  40  92 N7        30.06S
FREEPORT*      CLOUDY    40  38  96 N5        30.07S FOG
ROCHELLE*      DRIZZLE   41  40  97 N8        30.04S
DE KALB*       CLOUDY    42  41  96 N8        30.03S FOG
$$

ILZ005-006-012>014-019>023-290900-
NORTHEAST ILLINOIS

CITY           SKY/WX    TMP DP  RH WIND       PRES   REMARKS
CHICAGO-OHARE  LGT RAIN  42  41  96 N8        30.00F FOG
CHICAGO-MIDWAY DRIZZLE   45  41  86 NW6       30.00F FOG
AURORA         CLOUDY    44  42  93 N6        30.02F FOG
LANSING*       CLOUDY    45  43  93 NW3       30.00F FOG
JOLIET*        CLOUDY    46  44  93 N5        30.02R FOG
WAUKEGAN       CLOUDY    41  41 100 N5        30.02S FOG
DUPAGE AIRPORT CLOUDY    43  40  89 N7        30.01F FOG
KANKAKEE*      MOCLDY    47  44  90 CALM      30.00R FOG
WHEELING       CLOUDY    42  41  96 NW6       30.03S FOG
MORRIS*        CLOUDY    45  42  90 CALM      30.00F FOG
ROMEOVILLE*    CLOUDY    44  42  92 N6        30.01F FOG
NORTHERLY ISL    N/A     44  42  93 W6          N/A
NORTHERLY ISL    N/A     44  42  93 W6          N/A
$$

LMZ740>746-290900-
SOUTHERN LAKE MICHIGAN

STATION/POSITION SKY/WX   TEMP    WIND        PRES    VSBY  WAVE
                          AIR SEA DIR/SP/G                  HT/PER
                          (F)     (DEG/KT/KT) (MB)    (MI)  (FT/S)
SOUTHERN BUOY              41 40   60/  8/  8 1016.3S         1/ 4
HARRISON CRIB              44     330/ 11/ 12   N/A
BURNHAM HARBOR             44     280/  6/  7   N/A
CALUMET HARBOR             45     300/  4/  6 1015.7R
BURNS HARBOR               44     290/  8/ 11 1016.6R
MICHIGAN CITY              45     200/  7/  8   N/A
ST. JOSEPH                 49 47  190/  8/ 10   N/A           2/ 4
$$

ILZ025>027-034>036-040-047-049-050-058-095>099-290900-
WEST-CENTRAL ILLINOIS

CITY           SKY/WX    TMP DP  RH WIND       PRES   REMARKS
QUINCY         CLEAR     50  45  83 NW9       30.04R
GALESBURG*     MOCLDY    50  49  95 W6        30.02S
MACOMB*        CLEAR     47  46  95 W7        30.05S
JACKSONVILLE*  CLOUDY    50  47  88 NW7       30.04R
PITTSFIELD*    PTCLDY    51  48  89 NW7       30.04F
$$

ILZ028>032-037-038-041>044-048-051>054-059>061-290900-
CENTRAL ILLINOIS

CITY           SKY/WX    TMP DP  RH WIND       PRES   REMARKS
PONTIAC        CLOUDY    50  49  97 N6        30.01R FOG
BLOOMINGTON    CLEAR     49  48  96 NW5       30.01R
DECATUR        CLEAR     53  47  79 W6        30.02R
PEORIA         CLOUDY    51  48  89 W3        30.01S
LACON*         CLOUDY    48  46  93 N3        30.02R FOG
LINCOLN*       CLOUDY    56  51  82 CALM      30.02R
SPRINGFIELD    CLOUDY    52  48  86 NW6       30.02S
TAYLORVILLE    CLOUDY    48  48 100 CALM      30.03R
$$

ILZ033-039-045-046-055>057-062-063-290900-
EAST-CENTRAL ILLINOIS

CITY           SKY/WX    TMP DP  RH WIND       PRES   REMARKS
CHAMPAIGN      CLEAR     48  47  96 SW7       30.01R
RANTOUL*       CLEAR     50  49  97 W3        30.00R FOG
PARIS*         CLEAR     47  47  99 W5        30.02R
$$

ILZ079-100>102-290900-
SOUTHWEST ILLINOIS

CITY           SKY/WX    TMP DP  RH WIND       PRES   REMARKS
ALTON          CLOUDY    50  48  93 CALM      30.03F
BELLEVILLE     CLOUDY    53  53  99 CALM      30.02S
CAHOKIA*       CLOUDY    53  50  89 CALM      30.03S
SPARTA*        PTCLDY    53  50  91 CALM      30.04S
$$

ILZ064>066-069>071-074>076-080>082-084>086-088>090-092>094-290900-
SOUTH-CENTRAL ILLINOIS

CITY           SKY/WX    TMP DP  RH WIND       PRES   REMARKS
CARBONDALE     CLOUDY    53  50  89 CALM      30.02S
CAIRO*         CLOUDY    59  53  80 N10       30.00R
EFFINGHAM*     CLEAR     51  51 100 CALM      30.04S
MARION         PTCLDY    54  52  94 CALM      30.03S
MT. VERNON     MOCLDY    50  45  81 CALM      30.04R
CENTRALIA*     CLOUDY    52  51  98 CALM      30.02S
SALEM*         CLOUDY    53  50  90 CALM      30.03S
METROPOLIS*    CLOUDY    59  55  87 N8        30.01R
$$

ILZ067-068-072-073-078-083-087-091-290900-
SOUTHEAST ILLINOIS

CITY           SKY/WX    TMP DP  RH WIND       PRES   REMARKS
LAWRENCEVILLE  CLEAR     54  51  90 CALM      30.02S
FLORA*         CLEAR     54  50  89 CALM      30.03R
FAIRFIELD*     PTCLDY    52  51  95 CALM      30.02R
HARRISBURG*    CLEAR     55  51  85 CALM      30.03R
ROBINSON*      CLEAR     48  48  99 CALM      30.03R
CARMI*         PTCLDY    56  53  89 CALM      30.02R
$$

ABBREVIATIONS USED IN REMARKS
   TC - TEMPERATURE IN CELSIUS
  WCI - WIND CHILL INDEX
   HX - HEAT INDEX
  VSB - VISIBILITY
$$





USA.gov is the U.S. government's official web portal to all federal, state and local government web resources and services.